User: anonymous   Login
Location: Alsip
(41.6689°N, 87.7387°W)
Time: 12:55:10
(UTC+00:00)
Language:

XW-2B - Orbit

View from above orbital plane
View from above orbital plane
View from above satellite
View from above satellite

Ground track
Ground track

The orbit data is extracted from the following two-line orbital elements,

1 40911U 15049N   21296.24019765  .00001889  00000-0  97773-4 0  9991
2 40911  97.4885 297.5559 0015297  99.8570 316.2333 15.17363172336865
Epoch (UTC): 23 October 2021 05:45:53
Eccentricity: 0.0015297
inclination: 97.4885°
perigee height: 503 km
apogee height: 524 km
right ascension of ascending node: 297.5559°
argument of perigee: 99.8570°
revolutions per day: 15.17363172
mean anomaly at epoch: 316.2333°
orbit number at epoch: 33686

The dashed part of the orbit path shows where the satellite is in the earth's shadow,  

DLR